Wilkes Barre Scranton International Airport
KAVP : now visible

Airfield :











YOU CAN JOIN US ON...

 
LOGIN :

Register | Disclaimer

   EN    FR    IT 

 









Legend :    VFR   Marginal VFR   IFR   Intensive IFR   Very Intensive IFR
Visi :
Ceiling :
>= 8 km
>= 3000ft
5 to 8 km
1000 to 3000 ft
1500m to 5 km
500 to 1000 ft
800 to 1500m
200 to 500 ft
< 800m
< 200 ft
Symbols :   Thunderstorms  Fog  Heavy snow  Heavy precipitations  Wind > 20 kt






- Airport Elevation : 962 ft
- IATA code : AVP


KAVP - Wilkes Barre Scranton International

CURRENT METAR :
  • 162154Z 12003KT 10SM CLR 02/M21 A3039 RMK AO2 SLP301 T00221211

EXPIRED METARs :
  • 162054Z VRB03KT 10SM CLR 04/M21 A3039 RMK AO2 SLP297 T00391211 55004
  • 161954Z 08006KT 10SM CLR 04/M21 A3038 RMK AO2 SLP294 T00391206

TAF KAVP
Valid from the 16 at 18:00 until the 17 at 18:00 UTC


161734Z 1618/1718 02008KT P6SM SKC
FM162300 VRB03KT P6SM SKC
FM171500 08005KT P6SM SCT080



MET'MAP, your aeronautical weather chart ! - Copyright ORBIFLY December 2007 - Disclaimer

ORBIFLY MET'MAP TEAM :

Programming & Development : Alexandra Zaïnal
Concept & Development : Baudouin d'Aumeries
Co-Development & Prog : Marc-Olivier Méhu
Technical & hardware support : Manuel Goepfert

Contact : metmap@orbifly.com




SOURCES & CREDITS :

   NOAA       Earth
Advisory